Погода в Муртыгите

Россия / Амурская область     54°25′50″N   123°51′49″E
темп.,
°C
ветер,
м/с
пор.,
м/с
влажн.,
%
обл.,
%
осадки,
мм/ч
давл.,
гПа
погр.,
м
17 мая, пн
пн1700:00+3ссз348029 0.0 100084
03:00+1ссз228613 0.0 100126
06:00+1ссз1275100 0.0 100187
09:00+6ссз4646100 0.0 10021480
12:00+9сз463219 0.0 10012060
15:00+9сз4628100 0.0 10002428
18:00+10ююз1430100 0.0 9982284
21:00+5ссв115598 0.1 99812
18 мая, вт
вт1800:00+2с2494100 1.0 1000139
03:00+2з0198100 2.0 999217
06:00+2сз269670 0.3 999365
09:00+4сз466292 0.3 10001366
12:00+5сз574499 0.2 10012195
15:00+6сз6735100 0.3 10032795
18:00+5ссз463659 0.0 10031747
21:000ссв2163100 0.0 100513
19 мая, ср
ср1900:00−1ссв1170100 0.0 100631
03:00−1ссв2385100 0.6 1006115
06:00−1св138681 0.4 1006195
09:00+4ю225367 0.4 10041153
12:00+8зюз2535100 0.2 10022616
15:00+9зсз2429100 0.2 10012543
18:00+9ююв2431100 0.0 10001939
21:00+4с1161100 0.1 100241
20 мая, чт
чт2000:00+1ссв1199100 2.3 100366
03:00+1ссз11100100 3.7 1003125
06:00+2сз1299100 0.6 1003175
09:00+3сз248469 0.6 1005562
12:00+9с2556100 0.1 10041738
15:00+9ссз3545100 0.2 10051801
18:00+7с2251100 0.0 10081374
21:00+4ссв1167100 0.0 101110
21 мая, пт
пт2100:000с227384 0.0 101331
03:00−1ссв2270100 0.0 101537
06:000ссв256698 0.0 1014125
09:00+5всв3645100 0.0 1013642
12:00+5св3655100 0.4 1013643
15:00+3всв3580100 2.2 1013711
18:00+3св3788100 0.6 1012576
21:00+2св4118870 0.8 1010513